Selawik, AK

5:44 PM AKST on January 17, 2018 (GMT -0900)
Selawik

Weather History for PASK - July, 2013

Change the Weather History Date:

Thursday, July 25, 2013

  Actual Average Record
Temperature  
Mean Temperature 52 °F -  
Max Temperature 57 °F 59 °F 75 °F (2005)
Min Temperature 48 °F 48 °F 41 °F (2000)
Degree Days  
Heating Degree Days 12    
Growing Degree Days 2 (Base 50)    
Moisture  
Dew Point 42 °F    
Average Humidity 67    
Maximum Humidity 87    
Minimum Humidity 47    
Precipitation  
Precipitation 0.00 in - - ()
Sea Level Pressure  
Sea Level Pressure 30.15 in    
Wind  
Wind Speed 11 mph (West)    
Max Wind Speed 16 mph    
Max Gust Speed 25 mph    
Visibility 10 miles    
Events      
Averages and records for this station are not official NWS values.
T = Trace of Precipitation, MM = Missing Value Source: NWS Daily Summary

Daily Weather History Graph

Daily Weather History Graph

Search for Another Location

Airport or City:

Trip Planner

Search our weather history database for the weather conditions in past years. The results will help you decide how hot, cold, wet, or windy it might be!

Date:

Astronomy

Jul. 25, 2013 Rise Set
Actual Time 4:49 AM AKDT 12:39 AM AKDT
Civil Twilight Sun does not rise 2:14 AM AKDT
Nautical Twilight Sun does not rise Sun does not rise
Astronomical Twilight Sun does not rise Sun does not rise
Moon 11:45 PM AKDT (7/25) 11:01 AM AKDT (7/25)
Length of Visible Light 24h 00m
Length of Day
19h 50m
Waning Gibbous, 87% of the Moon is Illuminated
Jul 25
Waning Gibbous
Jul 29
Last Quarter
Aug 6
New
Aug 14
First Quarter
Aug 20
Full

Hourly Weather History & Observations

Time (AKDT) Temp. Dew Point Humidity Pressure Visibility Wind Dir Wind Speed Gust Speed Precip Events Conditions
12:16 AM 53.6 °F 46.4 °F 77% 30.14 in 10.0 mi West 12.7 mph - N/A   Clear
12:36 AM 53.6 °F 46.4 °F 77% 30.14 in 10.0 mi West 13.8 mph 17.3 mph N/A   Clear
12:56 AM 53.6 °F 44.6 °F 72% 30.14 in 10.0 mi West 11.5 mph - N/A   Clear
1:16 AM 51.8 °F 44.6 °F 76% 30.14 in 10.0 mi West 12.7 mph - N/A   Clear
1:36 AM 51.8 °F 44.6 °F 76% 30.14 in 10.0 mi West 11.5 mph - N/A   Clear
1:56 AM 50.0 °F 44.6 °F 82% 30.15 in 10.0 mi West 9.2 mph - N/A   Clear
2:16 AM 50.0 °F 44.6 °F 82% 30.14 in 10.0 mi West 10.4 mph - N/A   Clear
2:36 AM 50.0 °F 42.8 °F 76% 30.15 in 10.0 mi West 11.5 mph - N/A   Clear
2:56 AM 48.2 °F 42.8 °F 82% 30.15 in 10.0 mi West 10.4 mph - N/A   Clear
3:16 AM 48.2 °F 44.6 °F 87% 30.15 in 10.0 mi West 10.4 mph - N/A   Clear
3:36 AM 48.2 °F 44.6 °F 87% 30.15 in 10.0 mi WSW 12.7 mph - N/A   Clear
3:56 AM 48.2 °F 44.6 °F 87% 30.15 in 10.0 mi West 10.4 mph - N/A   Clear
4:16 AM 48.2 °F 44.6 °F 87% 30.15 in 10.0 mi West 10.4 mph - N/A   Clear
4:36 AM 48.2 °F 44.6 °F 87% 30.15 in 10.0 mi West 10.4 mph - N/A   Clear
4:56 AM 48.2 °F 42.8 °F 82% 30.14 in 10.0 mi West 15.0 mph - N/A   Clear
5:16 AM 48.2 °F 42.8 °F 82% 30.15 in 10.0 mi West 10.4 mph - N/A   Clear
5:36 AM 48.2 °F 42.8 °F 82% 30.15 in 10.0 mi West 10.4 mph - N/A   Clear
5:56 AM 48.2 °F 42.8 °F 82% 30.15 in 10.0 mi West 11.5 mph - N/A   Clear
6:16 AM 48.2 °F 42.8 °F 82% 30.16 in 10.0 mi West 9.2 mph - N/A   Clear
6:36 AM 48.2 °F 42.8 °F 82% 30.16 in 10.0 mi West 11.5 mph 17.3 mph N/A   Clear
6:56 AM 48.2 °F 41.0 °F 76% 30.16 in 10.0 mi West 8.1 mph 16.1 mph N/A   Clear
7:16 AM 48.2 °F 41.0 °F 76% 30.16 in 10.0 mi West 9.2 mph 16.1 mph N/A   Clear
7:36 AM 48.2 °F 41.0 °F 76% 30.16 in 10.0 mi West 11.5 mph - N/A   Clear
7:56 AM 50.0 °F 39.2 °F 66% 30.16 in 10.0 mi West 10.4 mph 17.3 mph N/A   Clear
8:16 AM 50.0 °F 39.2 °F 66% 30.16 in 10.0 mi West 12.7 mph - N/A   Clear
8:36 AM 50.0 °F 39.2 °F 66% 30.16 in 10.0 mi West 12.7 mph 16.1 mph N/A   Clear
8:56 AM 50.0 °F 41.0 °F 71% 30.16 in 10.0 mi WNW 13.8 mph - N/A   Clear
9:16 AM 51.8 °F 41.0 °F 67% 30.16 in 10.0 mi WNW 12.7 mph - N/A   Clear
9:36 AM 51.8 °F 42.8 °F 71% 30.16 in 10.0 mi West 9.2 mph - N/A   Clear
9:56 AM 51.8 °F 42.8 °F 71% 30.16 in 10.0 mi WNW 10.4 mph - N/A   Clear
10:16 AM 53.6 °F 42.8 °F 67% 30.16 in 10.0 mi West 10.4 mph - N/A   Clear
10:36 AM 53.6 °F 41.0 °F 62% 30.16 in 10.0 mi West 11.5 mph - N/A   Clear
10:56 AM 53.6 °F 42.8 °F 67% 30.16 in 10.0 mi West 9.2 mph 18.4 mph N/A   Clear
11:16 AM 53.6 °F 42.8 °F 67% 30.16 in 10.0 mi West 11.5 mph 18.4 mph N/A   Clear
11:36 AM 55.4 °F 42.8 °F 63% 30.16 in 10.0 mi West 12.7 mph 18.4 mph N/A   Clear
11:56 AM 55.4 °F 42.8 °F 63% 30.15 in 10.0 mi West 12.7 mph 17.3 mph N/A   Clear
12:16 PM 55.4 °F 42.8 °F 63% 30.16 in 10.0 mi West 12.7 mph 19.6 mph N/A   Clear
12:36 PM 57.2 °F 44.6 °F 63% 30.16 in 10.0 mi WSW 13.8 mph 17.3 mph N/A   Partly Cloudy
12:56 PM 55.4 °F 42.8 °F 63% 30.16 in 10.0 mi West 15.0 mph 19.6 mph N/A   Mostly Cloudy
1:16 PM 55.4 °F 42.8 °F 63% 30.16 in 10.0 mi West 13.8 mph 20.7 mph N/A   Scattered Clouds
1:36 PM 55.4 °F 42.8 °F 63% 30.16 in 10.0 mi West 16.1 mph 20.7 mph N/A   Mostly Cloudy
1:56 PM 55.4 °F 42.8 °F 63% 30.16 in 10.0 mi West 13.8 mph 20.7 mph N/A   Overcast
2:16 PM 55.4 °F 42.8 °F 63% 30.16 in 10.0 mi West 15.0 mph 25.3 mph N/A   Overcast
2:36 PM 53.6 °F 42.8 °F 67% 30.16 in 10.0 mi West 13.8 mph - N/A   Overcast
2:56 PM 55.4 °F 42.8 °F 63% 30.16 in 10.0 mi West 12.7 mph 17.3 mph N/A   Overcast
3:16 PM 55.4 °F 42.8 °F 63% 30.16 in 10.0 mi West 10.4 mph 18.4 mph N/A   Overcast
3:36 PM 55.4 °F 42.8 °F 63% 30.16 in 10.0 mi West 11.5 mph - N/A   Overcast
3:56 PM 55.4 °F 42.8 °F 63% 30.16 in 10.0 mi West 11.5 mph 19.6 mph N/A   Overcast
4:16 PM 55.4 °F 42.8 °F 63% 30.16 in 10.0 mi West 12.7 mph 19.6 mph N/A   Overcast
4:36 PM 55.4 °F 42.8 °F 63% 30.16 in 10.0 mi West 13.8 mph - N/A   Overcast
4:56 PM 55.4 °F 42.8 °F 63% 30.16 in 10.0 mi WSW 15.0 mph 19.6 mph N/A   Overcast
5:16 PM 55.4 °F 42.8 °F 63% 30.15 in 10.0 mi WSW 12.7 mph 17.3 mph N/A   Overcast
5:36 PM 55.4 °F 42.8 °F 63% 30.15 in 10.0 mi West 12.7 mph - N/A   Overcast
5:56 PM 55.4 °F 42.8 °F 63% 30.15 in 10.0 mi West 11.5 mph 16.1 mph N/A   Overcast
6:16 PM 55.4 °F 41.0 °F 58% 30.15 in 10.0 mi West 11.5 mph - N/A   Overcast
6:36 PM 55.4 °F 42.8 °F 63% 30.15 in 10.0 mi West 9.2 mph - N/A   Overcast
6:56 PM 55.4 °F 41.0 °F 58% 30.14 in 10.0 mi West 9.2 mph - N/A   Overcast
7:16 PM 57.2 °F 41.0 °F 55% 30.14 in 10.0 mi West 10.4 mph - N/A   Overcast
7:36 PM 57.2 °F 39.2 °F 51% 30.14 in 10.0 mi WSW 10.4 mph - N/A   Overcast
7:56 PM 57.2 °F 39.2 °F 51% 30.14 in 10.0 mi West 8.1 mph - N/A   Overcast
8:16 PM 57.2 °F 37.4 °F 48% 30.14 in 10.0 mi West 8.1 mph - N/A   Overcast
8:36 PM 55.4 °F 37.4 °F 51% 30.13 in 10.0 mi West 9.2 mph - N/A   Overcast
8:56 PM 55.4 °F 37.4 °F 51% 30.13 in 10.0 mi West 8.1 mph - N/A   Overcast
9:16 PM 55.4 °F 37.4 °F 51% 30.13 in 10.0 mi West 8.1 mph - N/A   Overcast
9:36 PM 55.4 °F 35.6 °F 47% 30.13 in 10.0 mi West 8.1 mph - N/A   Overcast
9:56 PM 55.4 °F 37.4 °F 51% 30.13 in 10.0 mi West 8.1 mph - N/A   Overcast
10:16 PM 55.4 °F 37.4 °F 51% 30.13 in 10.0 mi West 8.1 mph - N/A   Overcast
10:36 PM 55.4 °F 37.4 °F 51% 30.13 in 10.0 mi West 6.9 mph - N/A   Overcast
10:56 PM 53.6 °F 39.2 °F 58% 30.13 in 10.0 mi West 6.9 mph - N/A   Overcast
11:16 PM 53.6 °F 39.2 °F 58% 30.13 in 10.0 mi West 5.8 mph - N/A   Overcast
11:36 PM 53.6 °F 39.2 °F 58% 30.13 in 10.0 mi WSW 6.9 mph - N/A   Overcast
11:56 PM 53.6 °F 39.2 °F 58% 30.13 in 10.0 mi West 5.8 mph - N/A   Overcast